Погода в Белькачах

Россия / Республика Саха (Якутия)     59°11′13″N   131°54′09″E
темп.,
°C
ветер,
м/с
пор.,
м/с
влажн.,
%
обл.,
%
осадки,
мм/ч
давл.,
гПа
погр.,
м
27 февраля, сб
сб2700:00−30всв22970 0.0 103219
03:00−31всв11960 0.0 103019
06:00−32всв12960 0.0 103019
09:00−29всв24960 0.0 1028124
12:00−23всв249562 0.0 1025256
15:00−20св369581 0.0 1019302
18:00−20св2597100 0.0 1018143
21:00−21св2596100 0.0 1014148
28 февраля, вс
вс2800:00−21ссв1199100 0.6 101351
03:00−21зюз4797100 1.6 1013531
06:00−22з4995100 0.3 1016729
09:00−21з51089100 0.4 10191121
12:00−21з5984100 0.1 10221178
15:00−22з5883100 0.1 10241195
18:00−24з3988100 0.0 1027709
21:00−26з2596100 0.1 1028118
1 марта, пн
пн100:00−25з3996100 0.0 1029405
03:00−27з3993100 0.1 1029283
06:00−28з289699 0.0 1029249
09:00−25з479099 0.1 1029933
12:00−23з4785100 0.1 10281245
15:00−23з4784100 0.2 10271272
18:00−25з3792100 0.1 1028264
21:00−26з3796100 0.1 1028268
2 марта, вт
вт200:00−29з2498100 0.0 1028109
03:00−32з129896 0.1 102819
06:00−33з129796 0.0 102919
09:00−31зюз139694 0.0 1028126
12:00−26зюз248794 0.0 1027624
15:00−24з238497 0.1 10261014
18:00−27зюз1194100 0.0 102619
21:00−31ю009797 0.0 102719
3 марта, ср
ср300:00−32ююз009890 0.0 102619
03:00−33ююз009995 0.0 102519
06:00−35ю009995 0.0 102519
09:00−31юв009779 0.0 102443
12:00−24св018874 0.0 1021363
15:00−23св128184 0.0 1019767
18:00−28всв1195100 0.0 101819
21:00−31ссз1199100 0.1 101919